Time,TemperatureF,DewpointF,PressureIn,WindDirection,WindDirectionDegrees,WindSpeedMPH,WindSpeedGustMPH,Humidity,HourlyPrecipIn,Conditions,Clouds,dailyrainin,SolarRadiationWatts/m^2,SoftwareType,DateUTC
2013-07-18 00:00:00,74.7,70.2,30.04,SSW,210,2.0,7.0,86,0.00,,,0.00,0.0,meteohub,2013-07-18 04:00:00,
2013-07-18 00:01:00,74.7,70.2,30.04,SSW,210,1.0,7.0,86,0.00,,,0.00,0.0,meteohub,2013-07-18 04:01:00,
2013-07-18 00:02:00,74.7,70.2,30.04,SSW,206,3.0,7.0,86,0.00,,,0.00,0.0,meteohub,2013-07-18 04:02:00,
2013-07-18 00:07:00,74.8,70.3,30.04,SW,221,3.0,7.0,86,0.00,,,0.00,0.0,meteohub,2013-07-18 04:07:00,
2013-07-18 00:12:00,74.8,70.3,30.03,WSW,255,2.0,6.0,86,0.00,,,0.00,0.0,meteohub,2013-07-18 04:12:00,
2013-07-18 00:17:00,74.8,70.3,30.03,SW,223,6.0,6.0,86,0.00,,,0.00,0.0,meteohub,2013-07-18 04:17:00,
2013-07-18 00:22:00,74.8,70.3,30.03,West,262,2.0,6.0,86,0.00,,,0.00,0.0,meteohub,2013-07-18 04:22:00,
2013-07-18 00:27:00,74.8,70.3,30.03,SSW,205,5.0,6.0,86,0.00,,,0.00,0.0,meteohub,2013-07-18 04:27:00,
2013-07-18 00:32:00,75.0,70.5,30.03,SSW,196,1.0,9.0,86,0.00,,,0.00,0.0,meteohub,2013-07-18 04:32:00,
2013-07-18 00:37:00,74.8,70.3,30.04,SW,222,2.0,9.0,86,0.00,,,0.00,0.0,meteohub,2013-07-18 04:37:00,
2013-07-18 00:42:00,74.7,70.5,30.04,SSW,192,1.0,9.0,87,0.00,,,0.00,0.0,meteohub,2013-07-18 04:42:00,
2013-07-18 00:47:00,74.7,70.5,30.04,SW,227,2.0,6.0,87,0.00,,,0.00,0.0,meteohub,2013-07-18 04:47:00,
2013-07-18 00:52:00,74.5,70.3,30.04,South,190,0.0,4.0,87,0.00,,,0.00,0.0,meteohub,2013-07-18 04:52:00,
2013-07-18 00:57:00,74.7,70.5,30.03,SW,235,1.0,4.0,87,0.00,,,0.00,0.0,meteohub,2013-07-18 04:57:00,
2013-07-18 01:02:00,74.7,70.5,30.03,SW,219,2.0,6.0,87,0.00,,,0.00,0.0,meteohub,2013-07-18 05:02:00,
2013-07-18 01:07:00,74.7,70.9,30.03,SW,229,1.0,6.0,88,0.00,,,0.00,0.0,meteohub,2013-07-18 05:07:00,
2013-07-18 01:12:00,74.7,70.9,30.03,WSW,241,2.0,3.0,88,0.00,,,0.00,0.0,meteohub,2013-07-18 05:12:00,
2013-07-18 01:17:00,74.8,71.1,30.02,SW,231,2.0,4.0,88,0.00,,,0.00,0.0,meteohub,2013-07-18 05:17:00,
2013-07-18 01:22:00,75.0,71.2,30.02,SW,224,1.0,5.0,88,0.00,,,0.00,0.0,meteohub,2013-07-18 05:22:00,
2013-07-18 01:27:00,75.0,71.2,30.02,SW,227,1.0,5.0,88,0.00,,,0.00,0.0,meteohub,2013-07-18 05:27:00,
2013-07-18 01:32:00,75.0,70.9,30.02,SW,229,2.0,5.0,87,0.00,,,0.00,0.0,meteohub,2013-07-18 05:32:00,
2013-07-18 01:37:00,75.4,71.2,30.02,SSW,200,2.0,6.0,87,0.00,,,0.00,0.0,meteohub,2013-07-18 05:37:00,
2013-07-18 01:42:00,75.4,71.2,30.02,WSW,244,3.0,6.0,87,0.00,,,0.00,0.0,meteohub,2013-07-18 05:42:00,
2013-07-18 01:47:00,75.6,71.4,30.02,SW,231,2.0,6.0,87,0.00,,,0.00,0.0,meteohub,2013-07-18 05:47:00,
2013-07-18 01:52:00,75.7,71.2,30.02,West,266,3.0,5.0,86,0.00,,,0.00,0.0,meteohub,2013-07-18 05:52:00,
2013-07-18 01:57:00,75.7,71.6,30.01,South,179,6.0,7.0,87,0.00,,,0.00,0.0,meteohub,2013-07-18 05:57:00,
2013-07-18 02:03:00,75.7,71.6,30.01,SSW,211,1.0,7.0,87,0.00,,,0.00,0.0,meteohub,2013-07-18 06:03:00,
2013-07-18 02:08:00,75.7,71.2,30.01,SW,234,1.0,7.0,86,0.00,,,0.00,0.0,meteohub,2013-07-18 06:08:00,
2013-07-18 02:13:00,75.6,71.4,30.01,SW,236,1.0,7.0,87,0.00,,,0.00,0.0,meteohub,2013-07-18 06:13:00,
2013-07-18 02:18:00,75.6,71.4,30.01,WSW,257,1.0,7.0,87,0.00,,,0.00,0.0,meteohub,2013-07-18 06:18:00,
2013-07-18 02:23:00,75.6,71.4,30.01,West,265,1.0,7.0,87,0.00,,,0.00,0.0,meteohub,2013-07-18 06:23:00,
2013-07-18 02:28:00,75.7,71.6,30.00,SW,235,2.0,8.0,87,0.00,,,0.00,0.0,meteohub,2013-07-18 06:28:00,
2013-07-18 02:33:00,75.7,71.6,30.00,SSW,207,2.0,8.0,87,0.00,,,0.00,0.0,meteohub,2013-07-18 06:33:00,
2013-07-18 02:38:00,75.7,71.6,30.00,SW,233,1.0,7.0,87,0.00,,,0.00,0.0,meteohub,2013-07-18 06:38:00,
2013-07-18 02:43:00,75.7,71.6,30.00,WSW,246,2.0,7.0,87,0.00,,,0.00,0.0,meteohub,2013-07-18 06:43:00,
2013-07-18 02:48:00,75.9,71.8,30.00,SW,228,3.0,7.0,87,0.00,,,0.00,0.0,meteohub,2013-07-18 06:48:00,
2013-07-18 02:53:00,75.9,71.8,30.00,SSW,200,4.0,7.0,87,0.00,,,0.00,0.0,meteohub,2013-07-18 06:53:00,
2013-07-18 02:58:00,75.9,71.8,30.00,SSW,206,6.0,7.0,87,0.00,,,0.00,0.0,meteohub,2013-07-18 06:58:00,
2013-07-18 03:03:00,76.1,72.0,30.00,SW,223,5.0,7.0,87,0.00,,,0.00,0.0,meteohub,2013-07-18 07:03:00,
2013-07-18 03:08:00,75.9,71.8,30.00,SW,226,3.0,6.0,87,0.00,,,0.00,0.0,meteohub,2013-07-18 07:08:00,
2013-07-18 03:13:00,75.9,71.8,30.00,SW,231,1.0,6.0,87,0.00,,,0.00,0.0,meteohub,2013-07-18 07:13:00,
2013-07-18 03:18:00,75.9,72.1,30.00,SSW,208,1.0,6.0,88,0.00,,,0.00,0.0,meteohub,2013-07-18 07:18:00,
2013-07-18 03:23:00,75.7,72.0,30.00,South,184,1.0,4.0,88,0.00,,,0.00,0.0,meteohub,2013-07-18 07:23:00,
2013-07-18 03:28:00,75.7,72.0,30.00,South,184,0.0,3.0,88,0.00,,,0.00,0.0,meteohub,2013-07-18 07:28:00,
2013-07-18 03:33:00,75.6,71.8,30.00,South,184,0.0,3.0,88,0.00,,,0.00,0.0,meteohub,2013-07-18 07:33:00,
2013-07-18 03:38:00,75.4,71.6,30.00,SW,219,0.0,3.0,88,0.00,,,0.00,0.0,meteohub,2013-07-18 07:38:00,
2013-07-18 03:43:00,75.2,71.8,30.00,SW,219,0.0,2.0,89,0.00,,,0.00,0.0,meteohub,2013-07-18 07:43:00,
2013-07-18 03:48:00,75.0,71.6,30.00,SW,219,0.0,2.0,89,0.00,,,0.00,0.0,meteohub,2013-07-18 07:48:00,
2013-07-18 03:53:00,74.8,71.8,29.99,SW,219,1.0,2.0,90,0.00,,,0.00,0.0,meteohub,2013-07-18 07:53:00,
2013-07-18 03:58:00,74.7,71.6,29.99,SW,219,0.0,2.0,90,0.00,,,0.00,0.0,meteohub,2013-07-18 07:58:00,
2013-07-18 04:03:00,74.7,71.6,29.99,SW,219,0.0,2.0,90,0.00,,,0.00,0.0,meteohub,2013-07-18 08:03:00,
2013-07-18 04:08:00,74.7,71.6,29.99,SW,219,0.0,2.0,90,0.00,,,0.00,0.0,meteohub,2013-07-18 08:08:00,
2013-07-18 04:13:00,74.5,71.4,29.99,SW,219,0.0,2.0,90,0.00,,,0.00,0.0,meteohub,2013-07-18 08:13:00,
2013-07-18 04:18:00,74.3,71.4,30.00,SW,219,0.0,1.0,91,0.00,,,0.00,0.0,meteohub,2013-07-18 08:18:00,
2013-07-18 04:23:00,74.1,71.2,30.00,SW,219,0.0,1.0,91,0.00,,,0.00,0.0,meteohub,2013-07-18 08:23:00,
2013-07-18 04:29:00,73.9,71.4,29.99,SW,219,0.0,0.0,92,0.00,,,0.00,0.0,meteohub,2013-07-18 08:29:00,
2013-07-18 04:34:00,73.9,71.1,29.99,SW,219,0.0,0.0,91,0.00,,,0.00,0.0,meteohub,2013-07-18 08:34:00,
2013-07-18 04:39:00,73.8,71.2,29.99,SW,219,0.0,0.0,92,0.00,,,0.00,0.0,meteohub,2013-07-18 08:39:00,
2013-07-18 04:44:00,73.6,71.1,29.99,SW,219,0.0,0.0,92,0.00,,,0.00,0.0,meteohub,2013-07-18 08:44:00,
2013-07-18 04:49:00,73.6,71.1,30.00,SW,219,0.0,0.0,92,0.00,,,0.00,0.0,meteohub,2013-07-18 08:49:00,
2013-07-18 04:54:00,73.4,70.9,30.00,SW,219,1.0,0.0,92,0.00,,,0.00,0.0,meteohub,2013-07-18 08:54:00,
2013-07-18 04:59:00,73.2,71.1,30.00,SW,219,0.0,2.0,93,0.00,,,0.00,0.0,meteohub,2013-07-18 08:59:00,
2013-07-18 05:17:00,73.0,70.9,29.99,SW,219,1.0,1.0,93,0.00,,,0.00,0.0,meteohub,2013-07-18 09:17:00,
2013-07-18 05:19:00,73.0,71.2,29.99,SW,219,0.0,1.0,94,0.00,,,0.00,0.0,meteohub,2013-07-18 09:19:00,
2013-07-18 05:24:00,73.0,71.2,29.99,SW,219,0.0,3.0,94,0.00,,,0.00,0.0,meteohub,2013-07-18 09:24:00,
2013-07-18 05:29:00,73.0,71.2,29.99,SW,219,0.0,3.0,94,0.00,,,0.00,0.0,meteohub,2013-07-18 09:29:00,
2013-07-18 05:34:00,73.0,71.2,29.99,SW,219,0.0,3.0,94,0.00,,,0.00,0.0,meteohub,2013-07-18 09:34:00,
2013-07-18 05:39:00,72.9,71.1,29.99,SW,219,0.0,2.0,94,0.00,,,0.00,0.0,meteohub,2013-07-18 09:39:00,
2013-07-18 05:44:00,72.9,71.1,29.98,SW,219,0.0,2.0,94,0.00,,,0.00,0.0,meteohub,2013-07-18 09:44:00,
2013-07-18 05:49:00,72.9,71.1,29.98,SW,219,0.0,2.0,94,0.00,,,0.00,0.0,meteohub,2013-07-18 09:49:00,
2013-07-18 05:54:00,72.9,71.4,29.98,SW,219,0.0,1.0,95,0.00,,,0.00,0.0,meteohub,2013-07-18 09:54:00,
2013-07-18 05:59:00,72.9,71.1,29.98,SW,219,1.0,1.0,94,0.00,,,0.00,0.0,meteohub,2013-07-18 09:59:00,
2013-07-18 06:04:00,72.9,71.4,29.97,SW,219,0.0,1.0,95,0.00,,,0.00,0.0,meteohub,2013-07-18 10:04:00,
2013-07-18 06:09:00,72.7,71.2,29.98,SW,219,0.0,1.0,95,0.00,,,0.00,0.0,meteohub,2013-07-18 10:09:00,
2013-07-18 06:14:00,72.7,71.2,29.98,SW,219,0.0,2.0,95,0.00,,,0.00,0.0,meteohub,2013-07-18 10:14:00,
2013-07-18 06:19:00,72.7,71.2,29.98,SW,219,0.0,2.0,95,0.00,,,0.00,0.0,meteohub,2013-07-18 10:19:00,
2013-07-18 06:24:00,72.5,71.1,29.99,SW,219,1.0,0.0,95,0.00,,,0.00,0.0,meteohub,2013-07-18 10:24:00,
2013-07-18 06:29:00,72.5,71.1,30.01,SW,219,1.0,2.0,95,0.00,,,0.00,0.0,meteohub,2013-07-18 10:29:00,
2013-07-18 06:34:00,72.3,70.9,30.02,North,9,6.0,6.0,95,0.00,,,0.00,0.0,meteohub,2013-07-18 10:34:00,
2013-07-18 06:39:00,72.1,70.7,30.02,NE,46,1.0,8.0,95,0.00,,,0.00,0.0,meteohub,2013-07-18 10:39:00,
2013-07-18 06:44:00,71.4,70.0,30.00,ENE,69,1.0,8.0,95,0.00,,,0.00,0.0,meteohub,2013-07-18 10:44:00,
2013-07-18 06:49:00,71.2,70.0,30.01,NE,56,0.0,8.0,96,0.01,,,0.01,0.0,meteohub,2013-07-18 10:49:00,
2013-07-18 06:55:00,71.2,70.0,30.00,NE,56,0.0,7.0,96,0.01,,,0.01,5.0,meteohub,2013-07-18 10:55:00,
2013-07-18 07:00:00,71.1,70.2,30.00,NE,56,1.0,7.0,97,0.01,,,0.01,7.0,meteohub,2013-07-18 11:00:00,
2013-07-18 07:05:00,71.1,70.2,30.00,SSW,195,0.0,3.0,97,0.01,,,0.01,7.0,meteohub,2013-07-18 11:05:00,
2013-07-18 07:10:00,70.9,70.0,30.00,SSW,195,0.0,2.0,97,0.01,,,0.01,9.0,meteohub,2013-07-18 11:10:00,
2013-07-18 07:15:00,70.9,70.0,30.00,SSW,195,0.0,2.0,97,0.01,,,0.01,9.0,meteohub,2013-07-18 11:15:00,
2013-07-18 07:20:00,70.5,69.6,29.99,SSW,195,1.0,2.0,97,0.01,,,0.01,11.0,meteohub,2013-07-18 11:20:00,
2013-07-18 07:25:00,70.5,69.6,29.99,SSW,195,1.0,2.0,97,0.01,,,0.01,14.0,meteohub,2013-07-18 11:25:00,
2013-07-18 07:30:00,70.5,69.6,29.99,SSW,195,2.0,2.0,97,0.01,,,0.02,26.0,meteohub,2013-07-18 11:30:00,
2013-07-18 07:35:00,70.5,70.0,29.99,SSW,211,0.0,2.0,98,0.02,,,0.02,56.0,meteohub,2013-07-18 11:35:00,
2013-07-18 07:40:00,70.7,70.2,29.99,SSW,211,0.0,3.0,98,0.02,,,0.02,188.0,meteohub,2013-07-18 11:40:00,
2013-07-18 07:45:00,71.1,70.5,29.98,South,183,1.0,3.0,98,0.02,,,0.02,178.0,meteohub,2013-07-18 11:45:00,
2013-07-18 07:50:00,71.2,70.7,29.98,SW,234,1.0,3.0,98,0.01,,,0.02,209.0,meteohub,2013-07-18 11:50:00,
2013-07-18 07:55:00,71.8,71.2,29.99,SW,231,0.0,3.0,98,0.01,,,0.02,220.0,meteohub,2013-07-18 11:55:00,
2013-07-18 08:00:00,72.1,71.6,29.99,SW,236,2.0,3.0,98,0.01,,,0.02,246.0,meteohub,2013-07-18 12:00:00,
2013-07-18 08:05:00,72.7,71.8,29.99,SW,223,2.0,4.0,97,0.01,,,0.02,251.0,meteohub,2013-07-18 12:05:00,
2013-07-18 08:10:00,73.0,71.6,29.99,SW,215,1.0,4.0,95,0.01,,,0.03,174.0,meteohub,2013-07-18 12:10:00,
2013-07-18 08:15:00,73.2,71.4,29.99,South,187,1.0,5.0,94,0.02,,,0.03,250.0,meteohub,2013-07-18 12:15:00,
2013-07-18 08:20:00,73.6,71.8,29.99,SW,214,1.0,5.0,94,0.02,,,0.03,267.0,meteohub,2013-07-18 12:20:00,
2013-07-18 08:25:00,74.3,72.1,29.99,SW,224,0.0,5.0,93,0.02,,,0.03,301.0,meteohub,2013-07-18 12:25:00,
2013-07-18 08:30:00,75.0,72.5,29.98,SE,126,1.0,4.0,92,0.02,,,0.03,232.0,meteohub,2013-07-18 12:30:00,
2013-07-18 08:35:00,75.7,73.2,29.98,SSE,150,1.0,4.0,92,0.01,,,0.03,304.0,meteohub,2013-07-18 12:35:00,
2013-07-18 08:40:00,76.5,72.7,29.98,SSE,162,3.0,4.0,88,0.01,,,0.03,330.0,meteohub,2013-07-18 12:40:00,
2013-07-18 08:45:00,76.8,72.7,29.98,SW,220,2.0,4.0,87,0.01,,,0.03,352.0,meteohub,2013-07-18 12:45:00,
2013-07-18 08:50:00,77.0,72.9,29.98,SSW,198,2.0,4.0,87,0.01,,,0.03,373.0,meteohub,2013-07-18 12:50:00,
2013-07-18 08:55:00,77.2,72.7,29.98,South,177,0.0,4.0,86,0.02,,,0.04,404.0,meteohub,2013-07-18 12:55:00,
2013-07-18 09:00:00,77.4,73.6,29.98,SW,219,3.0,4.0,88,0.02,,,0.04,387.0,meteohub,2013-07-18 13:00:00,
2013-07-18 09:05:00,77.2,72.7,29.98,SW,219,3.0,4.0,86,0.02,,,0.04,313.0,meteohub,2013-07-18 13:05:00,
2013-07-18 09:10:00,77.2,73.4,29.98,SSW,197,0.0,6.0,88,0.01,,,0.04,371.0,meteohub,2013-07-18 13:10:00,
2013-07-18 09:15:00,77.4,73.2,29.98,SSW,202,5.0,6.0,87,0.01,,,0.04,459.0,meteohub,2013-07-18 13:15:00,
2013-07-18 09:20:00,77.4,73.2,29.97,SW,217,3.0,6.0,87,0.01,,,0.04,436.0,meteohub,2013-07-18 13:20:00,
2013-07-18 09:25:00,77.7,73.6,29.98,SW,226,5.0,6.0,87,0.01,,,0.04,489.0,meteohub,2013-07-18 13:25:00,
2013-07-18 09:30:00,78.4,74.3,29.98,WSW,245,3.0,6.0,87,0.01,,,0.04,541.0,meteohub,2013-07-18 13:30:00,
2013-07-18 09:35:00,79.0,74.1,29.99,SSW,203,1.0,6.0,85,0.01,,,0.04,566.0,meteohub,2013-07-18 13:35:00,
2013-07-18 09:40:00,79.3,74.1,29.98,South,191,1.0,5.0,84,0.01,,,0.04,601.0,meteohub,2013-07-18 13:40:00,
2013-07-18 09:45:00,79.0,74.1,29.99,SSW,198,0.0,4.0,85,0.01,,,0.04,287.0,meteohub,2013-07-18 13:45:00,
2013-07-18 09:50:00,78.4,73.6,29.99,SW,236,0.0,4.0,85,0.01,,,0.04,192.0,meteohub,2013-07-18 13:50:00,
2013-07-18 09:55:00,78.4,74.3,29.99,SW,233,1.0,3.0,87,0.00,,,0.04,109.0,meteohub,2013-07-18 13:55:00,
2013-07-18 10:00:00,78.3,74.5,29.98,SW,233,0.0,3.0,88,0.00,,,0.04,79.0,meteohub,2013-07-18 14:00:00,
2013-07-18 10:06:00,77.9,74.1,29.99,SW,233,0.0,2.0,88,0.00,,,0.04,62.0,meteohub,2013-07-18 14:06:00,
2013-07-18 10:11:00,77.5,74.1,29.99,SW,233,0.0,1.0,89,0.00,,,0.04,44.0,meteohub,2013-07-18 14:11:00,
2013-07-18 10:16:00,77.2,73.8,29.99,North,355,1.0,2.0,89,0.00,,,0.04,40.0,meteohub,2013-07-18 14:16:00,
2013-07-18 10:21:00,76.5,73.2,29.99,North,355,0.0,3.0,90,0.00,,,0.04,40.0,meteohub,2013-07-18 14:21:00,
2013-07-18 10:26:00,75.7,72.9,29.99,North,355,1.0,3.0,91,0.00,,,0.04,35.0,meteohub,2013-07-18 14:26:00,
2013-07-18 10:31:00,75.0,72.5,30.00,North,355,0.0,2.0,92,0.00,,,0.04,42.0,meteohub,2013-07-18 14:31:00,
2013-07-18 10:36:00,74.5,72.0,29.99,NE,36,1.0,3.0,92,0.00,,,0.04,42.0,meteohub,2013-07-18 14:36:00,
2013-07-18 10:41:00,74.1,71.6,29.99,NE,48,3.0,5.0,92,0.00,,,0.04,42.0,meteohub,2013-07-18 14:41:00,
2013-07-18 10:46:00,73.9,71.8,29.99,NE,36,1.0,5.0,93,0.00,,,0.04,35.0,meteohub,2013-07-18 14:46:00,
2013-07-18 10:51:00,73.6,71.1,29.99,East,94,2.0,5.0,92,0.00,,,0.04,37.0,meteohub,2013-07-18 14:51:00,
2013-07-18 10:56:00,73.4,71.2,30.00,NNW,329,0.0,6.0,93,0.00,,,0.04,46.0,meteohub,2013-07-18 14:56:00,
2013-07-18 11:01:00,73.2,71.4,30.00,NNW,329,1.0,6.0,94,0.00,,,0.04,44.0,meteohub,2013-07-18 15:01:00,
2013-07-18 11:06:00,73.0,71.2,29.99,East,84,2.0,6.0,94,0.01,,,0.05,47.0,meteohub,2013-07-18 15:06:00,
2013-07-18 11:11:00,72.9,71.1,29.99,ENE,71,0.0,3.0,94,0.01,,,0.05,51.0,meteohub,2013-07-18 15:11:00,
2013-07-18 11:16:00,72.9,71.4,29.99,ENE,71,0.0,3.0,95,0.01,,,0.05,107.0,meteohub,2013-07-18 15:16:00,
2013-07-18 11:21:00,72.9,71.4,29.99,ENE,67,0.0,3.0,95,0.01,,,0.05,149.0,meteohub,2013-07-18 15:21:00,
2013-07-18 11:26:00,73.0,71.8,29.99,ENE,57,0.0,3.0,96,0.01,,,0.05,204.0,meteohub,2013-07-18 15:26:00,
2013-07-18 11:31:00,73.2,71.8,29.99,ENE,64,2.0,3.0,95,0.01,,,0.05,355.0,meteohub,2013-07-18 15:31:00,
2013-07-18 11:37:00,73.4,71.6,29.98,NE,36,2.0,5.0,94,0.01,,,0.05,281.0,meteohub,2013-07-18 15:37:00,
2013-07-18 11:42:00,73.8,72.0,29.99,NE,37,2.0,6.0,94,0.01,,,0.05,139.0,meteohub,2013-07-18 15:42:00,
2013-07-18 11:47:00,73.8,72.0,30.00,NE,37,0.0,6.0,94,0.02,,,0.06,91.0,meteohub,2013-07-18 15:47:00,
2013-07-18 11:52:00,73.6,72.1,30.02,NE,37,0.0,4.0,95,0.02,,,0.06,28.0,meteohub,2013-07-18 15:52:00,
2013-07-18 11:57:00,73.2,71.8,30.02,South,179,2.0,4.0,95,0.02,,,0.06,21.0,meteohub,2013-07-18 15:57:00,
2013-07-18 12:02:00,72.9,71.4,30.00,East,87,1.0,4.0,95,0.02,,,0.06,32.0,meteohub,2013-07-18 16:02:00,
2013-07-18 12:07:00,72.3,70.9,29.99,ESE,109,1.0,5.0,95,0.01,,,0.06,58.0,meteohub,2013-07-18 16:07:00,
2013-07-18 12:12:00,72.1,70.9,29.99,South,182,0.0,5.0,96,0.02,,,0.07,76.0,meteohub,2013-07-18 16:12:00,
2013-07-18 12:17:00,72.1,70.7,29.99,SE,139,0.0,5.0,95,0.02,,,0.07,79.0,meteohub,2013-07-18 16:17:00,
2013-07-18 12:22:00,72.0,70.5,29.98,SE,139,0.0,4.0,95,0.03,,,0.08,91.0,meteohub,2013-07-18 16:22:00,
2013-07-18 12:27:00,72.1,70.9,29.98,South,185,0.0,2.0,96,0.03,,,0.08,130.0,meteohub,2013-07-18 16:27:00,
2013-07-18 12:32:00,72.1,70.9,29.97,South,174,0.0,3.0,96,0.03,,,0.08,178.0,meteohub,2013-07-18 16:32:00,
2013-07-18 12:37:00,72.5,71.6,29.97,SSW,192,1.0,3.0,97,0.04,,,0.09,234.0,meteohub,2013-07-18 16:37:00,
2013-07-18 12:42:00,72.9,71.6,29.97,SSE,163,0.0,2.0,96,0.03,,,0.09,285.0,meteohub,2013-07-18 16:42:00,
2013-07-18 12:47:00,73.2,72.0,29.96,South,186,2.0,3.0,96,0.03,,,0.09,374.0,meteohub,2013-07-18 16:47:00,
2013-07-18 12:52:00,74.1,72.3,29.96,SE,130,2.0,4.0,94,0.04,,,0.10,485.0,meteohub,2013-07-18 16:52:00,
2013-07-18 12:57:00,75.7,72.9,29.96,East,86,1.0,4.0,91,0.04,,,0.10,561.0,meteohub,2013-07-18 16:57:00,
2013-07-18 13:02:00,76.3,72.9,29.95,SE,139,0.0,4.0,89,0.04,,,0.10,548.0,meteohub,2013-07-18 17:02:00,
2013-07-18 13:07:00,76.6,73.8,29.95,ENE,70,1.0,3.0,91,0.03,,,0.10,490.0,meteohub,2013-07-18 17:07:00,
2013-07-18 13:12:00,76.6,72.9,29.94,South,177,3.0,3.0,88,0.04,,,0.11,336.0,meteohub,2013-07-18 17:12:00,
2013-07-18 13:17:00,77.2,73.9,29.94,South,177,0.0,5.0,90,0.04,,,0.11,454.0,meteohub,2013-07-18 17:17:00,
2013-07-18 13:22:00,77.9,73.0,29.94,West,276,1.0,5.0,85,0.03,,,0.11,390.0,meteohub,2013-07-18 17:22:00,
2013-07-18 13:27:00,77.5,72.7,29.94,SSE,157,3.0,4.0,85,0.03,,,0.11,390.0,meteohub,2013-07-18 17:27:00,
2013-07-18 13:32:00,77.5,73.4,29.94,ESE,114,2.0,4.0,87,0.03,,,0.12,406.0,meteohub,2013-07-18 17:32:00,
2013-07-18 13:37:00,78.1,74.3,29.93,SSW,210,3.0,5.0,88,0.03,,,0.12,649.0,meteohub,2013-07-18 17:37:00,
2013-07-18 13:42:00,79.0,74.5,29.93,SE,129,1.0,5.0,86,0.03,,,0.12,394.0,meteohub,2013-07-18 17:42:00,
2013-07-18 13:47:00,79.2,74.3,29.93,SSW,209,1.0,5.0,85,0.04,,,0.13,403.0,meteohub,2013-07-18 17:47:00,
2013-07-18 13:52:00,78.6,73.8,29.93,SW,214,4.0,6.0,85,0.03,,,0.13,496.0,meteohub,2013-07-18 17:52:00,
2013-07-18 13:57:00,79.3,74.1,29.92,SSW,207,3.0,6.0,84,0.03,,,0.13,930.0,meteohub,2013-07-18 17:57:00,
2013-07-18 14:02:00,80.1,75.2,29.91,SW,214,2.0,6.0,85,0.03,,,0.13,244.0,meteohub,2013-07-18 18:02:00,
2013-07-18 14:07:00,80.1,75.2,29.91,SW,222,2.0,6.0,85,0.03,,,0.14,418.0,meteohub,2013-07-18 18:07:00,
2013-07-18 14:12:00,80.1,74.8,29.91,SSE,168,1.0,6.0,84,0.03,,,0.14,341.0,meteohub,2013-07-18 18:12:00,
2013-07-18 14:17:00,80.2,74.3,29.91,SW,233,2.0,7.0,82,0.03,,,0.14,186.0,meteohub,2013-07-18 18:17:00,
2013-07-18 14:22:00,80.1,74.8,29.92,WSW,256,1.0,7.0,84,0.04,,,0.15,216.0,meteohub,2013-07-18 18:22:00,
2013-07-18 14:28:00,79.5,75.6,29.92,North,0,0.0,5.0,88,0.03,,,0.15,46.0,meteohub,2013-07-18 18:28:00,
2013-07-18 14:33:00,78.8,75.2,29.92,North,355,2.0,5.0,89,0.03,,,0.15,16.0,meteohub,2013-07-18 18:33:00,
2013-07-18 14:38:00,78.1,74.5,29.92,SE,132,1.0,3.0,89,0.03,,,0.15,18.0,meteohub,2013-07-18 18:38:00,
2013-07-18 14:43:00,77.5,74.1,29.91,SE,125,1.0,2.0,89,0.03,,,0.16,30.0,meteohub,2013-07-18 18:43:00,
2013-07-18 14:48:00,77.2,73.9,29.92,NNE,26,1.0,3.0,90,0.03,,,0.16,26.0,meteohub,2013-07-18 18:48:00,
2013-07-18 14:53:00,76.5,74.3,29.90,ESE,112,3.0,3.0,93,0.03,,,0.16,30.0,meteohub,2013-07-18 18:53:00,
2013-07-18 14:58:00,75.6,73.8,29.91,NNW,334,1.0,3.0,94,0.03,,,0.16,51.0,meteohub,2013-07-18 18:58:00,
2013-07-18 15:03:00,75.2,73.6,29.92,ESE,107,2.0,3.0,95,0.03,,,0.17,46.0,meteohub,2013-07-18 19:03:00,
2013-07-18 15:08:00,74.7,73.2,29.90,NE,55,3.0,3.0,95,0.03,,,0.17,109.0,meteohub,2013-07-18 19:08:00,
2013-07-18 15:13:00,74.3,72.9,29.90,SW,221,1.0,3.0,95,0.04,,,0.18,163.0,meteohub,2013-07-18 19:13:00,
2013-07-18 15:18:00,74.1,72.9,29.90,SW,221,2.0,3.0,96,0.04,,,0.19,188.0,meteohub,2013-07-18 19:18:00,
2013-07-18 15:23:00,73.9,72.7,29.91,South,190,1.0,3.0,96,0.04,,,0.19,225.0,meteohub,2013-07-18 19:23:00,
2013-07-18 15:28:00,74.3,73.0,29.90,South,187,1.0,3.0,96,0.05,,,0.20,350.0,meteohub,2013-07-18 19:28:00,
2013-07-18 15:33:00,75.7,74.8,29.90,South,182,1.0,3.0,97,0.05,,,0.20,768.0,meteohub,2013-07-18 19:33:00,
2013-07-18 15:38:00,77.2,75.0,29.89,SE,131,1.0,3.0,93,0.06,,,0.21,877.0,meteohub,2013-07-18 19:38:00,
2013-07-18 15:43:00,78.6,75.4,29.88,SSE,148,1.0,2.0,90,0.05,,,0.21,821.0,meteohub,2013-07-18 19:43:00,
2013-07-18 15:48:00,79.2,75.9,29.88,SSW,213,0.0,3.0,90,0.05,,,0.21,833.0,meteohub,2013-07-18 19:48:00,
2013-07-18 15:53:00,78.4,73.6,29.88,SW,215,2.0,3.0,85,0.06,,,0.22,810.0,meteohub,2013-07-18 19:53:00,
2013-07-18 15:58:00,79.3,75.2,29.88,WSW,249,2.0,5.0,87,0.06,,,0.23,789.0,meteohub,2013-07-18 19:58:00,
2013-07-18 16:03:00,79.3,75.2,29.87,ESE,110,2.0,5.0,87,0.06,,,0.23,800.0,meteohub,2013-07-18 20:03:00,
2013-07-18 16:08:00,79.3,75.6,29.86,SE,145,2.0,5.0,88,0.06,,,0.24,752.0,meteohub,2013-07-18 20:08:00,
2013-07-18 16:13:00,80.2,75.7,29.86,South,170,1.0,5.0,86,0.07,,,0.25,729.0,meteohub,2013-07-18 20:13:00,
2013-07-18 16:18:00,80.6,75.4,29.86,SE,142,2.0,5.0,84,0.07,,,0.26,729.0,meteohub,2013-07-18 20:18:00,
2013-07-18 16:23:00,80.2,75.0,29.86,SSW,200,3.0,5.0,84,0.08,,,0.27,717.0,meteohub,2013-07-18 20:23:00,
2013-07-18 16:28:00,80.2,75.7,29.85,SSW,198,4.0,7.0,86,0.07,,,0.27,649.0,meteohub,2013-07-18 20:28:00,
2013-07-18 16:33:00,80.4,75.2,29.85,SSW,203,2.0,8.0,84,0.08,,,0.28,522.0,meteohub,2013-07-18 20:33:00,
2013-07-18 16:38:00,80.4,75.6,29.85,NW,306,1.0,8.0,85,0.08,,,0.29,457.0,meteohub,2013-07-18 20:38:00,
2013-07-18 16:43:00,80.4,75.9,29.85,South,174,4.0,8.0,86,0.08,,,0.29,471.0,meteohub,2013-07-18 20:43:00,
2013-07-18 16:48:00,80.8,76.5,29.84,SW,233,0.0,8.0,87,0.08,,,0.30,388.0,meteohub,2013-07-18 20:48:00,
2013-07-18 16:53:00,80.8,75.9,29.84,WSW,257,1.0,8.0,85,0.09,,,0.31,323.0,meteohub,2013-07-18 20:53:00,
2013-07-18 16:58:00,80.8,76.3,29.84,South,169,2.0,5.0,86,0.08,,,0.31,241.0,meteohub,2013-07-18 20:58:00,
2013-07-18 17:03:00,80.6,76.1,29.84,South,171,4.0,5.0,86,0.07,,,0.31,250.0,meteohub,2013-07-18 21:03:00,
2013-07-18 17:08:00,80.6,76.1,29.83,SSW,202,3.0,5.0,86,0.07,,,0.32,253.0,meteohub,2013-07-18 21:08:00,
2013-07-18 17:13:00,80.6,76.1,29.83,South,169,3.0,5.0,86,0.08,,,0.33,264.0,meteohub,2013-07-18 21:13:00,
2013-07-18 17:18:00,80.8,76.3,29.82,SSW,202,3.0,7.0,86,0.07,,,0.33,241.0,meteohub,2013-07-18 21:18:00,
2013-07-18 17:23:00,80.8,76.5,29.83,East,90,1.0,7.0,87,0.07,,,0.34,220.0,meteohub,2013-07-18 21:23:00,
2013-07-18 17:28:00,81.1,76.8,29.82,South,174,1.0,7.0,87,0.06,,,0.34,232.0,meteohub,2013-07-18 21:28:00,
2013-07-18 17:33:00,81.1,76.5,29.83,South,174,5.0,7.0,86,0.07,,,0.35,214.0,meteohub,2013-07-18 21:33:00,
2013-07-18 17:38:00,80.8,76.5,29.82,SSW,192,2.0,8.0,87,0.06,,,0.35,216.0,meteohub,2013-07-18 21:38:00,
2013-07-18 17:43:00,80.4,76.5,29.82,South,185,1.0,8.0,88,0.07,,,0.36,214.0,meteohub,2013-07-18 21:43:00,
2013-07-18 17:48:00,80.4,76.5,29.81,South,179,0.0,8.0,88,0.07,,,0.37,207.0,meteohub,2013-07-18 21:48:00,
2013-07-18 17:53:00,80.4,76.5,29.81,South,185,2.0,5.0,88,0.06,,,0.37,197.0,meteohub,2013-07-18 21:53:00,
2013-07-18 17:58:00,80.8,77.2,29.81,SSE,151,3.0,5.0,89,0.07,,,0.38,206.0,meteohub,2013-07-18 21:58:00,
2013-07-18 18:03:00,81.1,77.2,29.81,WSW,245,1.0,6.0,88,0.07,,,0.39,220.0,meteohub,2013-07-18 22:03:00,
2013-07-18 18:09:00,81.7,77.4,29.81,WSW,248,2.0,6.0,87,0.07,,,0.39,192.0,meteohub,2013-07-18 22:09:00,
2013-07-18 18:14:00,82.0,77.7,29.81,SW,218,3.0,6.0,87,0.07,,,0.40,139.0,meteohub,2013-07-18 22:14:00,